Temp
-12 -12 -12 -11 -12 -12 -12 -12 -12 -12 -12 -12 -12 -12 -12 -12 -12 -12 -12 -12 -12 -12 -12 -12 -12 -12 -12 -12 -12 -12 -12 -13 -13 -13 -13 -13 -13 -13 -13 -13 -13 -13 -13
-12 -12 -12 -11 -11 -12 -12 -12 -13 -13 -13 -13 -13 -13 -12 -12 -12 -12 -12 -12 -12 -12 -12 -12 -12 -12 -12 -12 -12 -12 -12 -12 -13 -13 -13 -13 -13 -13 -13 -13 -13 -13 -13
-12 -12 -12 -11 -12 -12 -12 -12 -13 -13 -13 -13 -13 -13 -12 -12 -12 -12 -12 -12 -12 -12 -12 -12 -12 -12 -13 -13 -13 -12 -12 -12 -12 -13 -13 -13 -13 -13 -13 -13 -13 -13 -13
-12 -12 -12 -12 -12 -12 -12 -13 -13 -13 -13 -13 -13 -12 -12 -12 -12 -12 -12 -12 -13 -13 -13 -13 -13 -13 -13 -13 -13 -13 -12 -12 -12 -13 -13 -13 -13 -13 -13 -13 -13 -13 -13
-12 -12 -12 -12 -12 -12 -12 -13 -13 -13 -13 -13 -13 -13 -12 -13 -13 -12 -13 -13 -13 -13 -13 -13 -13 -13 -13 -13 -13 -13 -13 -12 -12 -12 -13 -12 -13 -13 -14 -14 -13 -13 -13
-12 -12 -12 -12 -12 -12 -12 -13 -13 -13 -13 -13 -13 -13 -13 -13 -13 -13 -13 -13 -13 -13 -13 -13 -13 -13 -13 -13 -13 -13 -13 -13 -12 -12 -12 -12 -13 -13 -13 -13 -14 -14 -14
-12 -12 -11 -11 -12 -12 -12 -12 -12 -13 -13 -13 -13 -13 -13 -13 -13 -13 -13 -13 -13 -13 -13 -13 -13 -13 -13 -13 -13 -13 -13 -13 -13 -13 -13 -13 -13 -13 -13 -13 -14 -14 -14
-11 -12 -12 -12 -12 -12 -12 -12 -12 -13 -13 -13 -13 -13 -13 -13 -13 -13 -13 -13 -13 -13 -13 -13 -13 -13 -13 -14 -14 -13 -13 -13 -13 -13 -13 -13 -13 -14 -14 -14 -14 -14 -14
-11 -12 -12 -12 -12 -12 -12 -12 -12 -12 -13 -13 -13 -12 -12 -13 -13 -13 -13 -14 -13 -13 -13 -13 -13 -13 -13 -13 -14 -14 -14 -14 -14 -14 -14 -14 -14 -14 -14 -14 -14 -14 -14
-12 -12 -12 -12 -12 -12 -12 -12 -12 -12 -12 -13 -12 -12 -13 -13 -13 -13 -14 -14 -14 -14 -14 -14 -13 -13 -13 -14 -14 -14 -14 -14 -14 -14 -14 -14 -14 -14 -14 -14 -14 -14 -14
-11 -12 -12 -12 -11 -11 -12 -12 -12 -12 -12 -12 -13 -13 -13 -13 -13 -13 -14 -14 -14 -14 -14 -13 -13 -13 -14 -14 -14 -15 -15 -15 -15 -15 -15 -15 -15 -15 -15 -15 -15 -15 -15
-11 -12 -12 -12 -12 -12 -12 -12 -12 -12 -12 -13 -13 -13 -13 -13 -13 -14 -14 -14 -13 -13 -13 -14 -14 -14 -14 -14 -14 -15 -15 -15 -15 -15 -15 -15 -15 -15 -15 -15 -15 -15 -15
-11 -12 -12 -12 -12 -12 -12 -13 -12 -13 -12 -13 -13 -13 -13 -13 -13 -14 -14 -14 -14 -14 -14 -14 -14 -14 -14 -14 -14 -15 -15 -15 -15 -15 -15 -15 -16 -16 -16 -16 -16 -15 -15
-12 -12 -12 -13 -13 -13 -12 -12 -12 -12 -12 -12 -12 -12 -13 -13 -14 -14 -14 -15 -14 -14 -14 -14 -14 -14 -14 -14 -15 -15 -15 -15 -15 -15 -16 -16 -16 -16 -16 -16 -16 -16 -16
-13 -13 -13 -14 -13 -13 -13 -13 -13 -12 -12 -12 -13 -13 -13 -14 -14 -14 -15 -15 -14 -14 -14 -14 -14 -15 -15 -15 -15 -15 -15 -15 -15 -15 -15 -16 -15 -16 -16 -16 -16 -16 -16
-13 -13 -14 -14 -13 -13 -12 -12 -13 -14 -13 -12 -12 -13 -13 -13 -14 -14 -15 -15 -15 -15 -14 -14 -15 -15 -15 -15 -15 -15 -15 -16 -15 -15 -15 -15 -16 -16 -16 -16 -16 -16 -16
-13 -13 -14 -13 -13 -13 -12 -12 -12 -13 -13 -12 -13 -14 -14 -13 -14 -14 -15 -15 -15 -15 -15 -14 -15 -15 -15 -15 -15 -15 -15 -16 -15 -15 -14 -14 -15 -15 -15 -16 -16 -16 -17
-13 -13 -13 -14 -14 -13 -13 -12 -13 -13 -13 -13 -13 -12 -12 -13 -14 -14 -14 -14 -15 -15 -15 -15 -15 -15 -15 -16 -15 -15 -16 -16 -15 -14 -15 -15 -15 -15 -15 -16 -17 -17 -17
-13 -13 -13 -13 -14 -13 -13 -12 -13 -13 -13 -13 -13 -12 -13 -14 -14 -14 -14 -14 -15 -15 -15 -15 -15 -15 -16 -15 -15 -16 -15 -16 -15 -15 -15 -15 -15 -15 -15 -16 -17 -17 -18
-14 -14 -14 -14 -14 -14 -13 -14 -14 -14 -13 -13 -14 -14 -13 -14 -15 -15 -15 -14 -15 -14 -15 -15 -16 -16 -16 -16 -16 -16 -16 -16 -15 -15 -15 -15 -15 -15 -16 -16 -17 -18 -18
-14 -14 -14 -14 -14 -14 -14 -11 -13 -14 -14 -14 -14 -14 -14 -12 -14 -14 -14 -15 -14 -15 -15 -16 -16 -16 -16 -16 -16 -16 -16 -16 -16 -15 -16 -15 -15 -16 -16 -16 -18 -18 -19
-14 -14 -14 -14 -15 -14 -14 -14 -14 -14 -13 -14 -14 -15 -14 -15 -14 -14 -14 -15 -16 -16 -16 -16 -16 -16 -16 -16 -16 -17 -16 -16 -16 -16 -16 -16 -16 -16 -16 -16 -17 -19 -19
-14 -14 -14 -15 -15 -15 -13 -14 -14 -14 -14 -14 -14 -15 -15 -14 -15 -15 -15 -16 -15 -16 -16 -16 -16 -16 -16 -17 -17 -17 -16 -16 -16 -16 -16 -16 -16 -16 -18 -18 -19 -20 -20
-14 -15 -16 -14 -15 -15 -15 -15 -14 -14 -14 -14 -14 -14 -15 -15 -16 -16 -16 -16 -16 -15 -15 -16 -16 -17 -17 -17 -17 -17 -17 -16 -16 -16 -17 -17 -17 -17 -17 -19 -19 -20 -20
-15 -17 -16 -15 -16 -16 -15 -15 -15 -15 -15 -14 -14 -15 -15 -16 -16 -16 -15 -16 -16 -16 -16 -17 -17 -17 -17 -17 -17 -18 -18 -17 -17 -18 -17 -17 -17 -17 -18 -19 -19 -20 -20
-17 -17 -15 -16 -15 -15 -14 -15 -15 -15 -15 -14 -15 -15 -16 -16 -16 -16 -16 -16 -16 -17 -17 -17 -17 -17 -17 -17 -18 -18 -18 -18 -18 -18 -19 -18 -18 -18 -19 -19 -19 -20 -20
Height
5811 5814 5816 5820 5822 5823 5826 5828 5829 5830 5831 5833 5835 5837 5838 5839 5840 5841 5842 5842 5842 5843 5843 5843 5843 5843 5843 5842 5842 5841 5840 5839 5838 5838 5837 5837 5838 5838 5838 5838 5838 5838 5839
5805 5808 5811 5814 5816 5819 5821 5824 5825 5826 5827 5828 5829 5831 5832 5833 5834 5836 5837 5837 5839 5839 5839 5839 5839 5839 5839 5838 5837 5836 5835 5834 5833 5833 5831 5832 5831 5833 5833 5832 5833 5833 5834
5800 5802 5806 5809 5811 5813 5816 5819 5820 5821 5822 5823 5824 5826 5827 5828 5830 5831 5832 5832 5832 5833 5834 5834 5834 5834 5833 5833 5832 5831 5830 5829 5828 5827 5826 5826 5826 5827 5827 5827 5828 5828 5828
5796 5797 5800 5802 5805 5807 5810 5812 5814 5815 5816 5818 5819 5820 5821 5823 5825 5826 5828 5827 5827 5828 5828 5828 5828 5828 5827 5827 5826 5825 5825 5823 5822 5822 5821 5821 5821 5821 5822 5822 5822 5822 5822
5790 5791 5793 5795 5798 5801 5804 5806 5808 5809 5810 5811 5813 5814 5816 5818 5819 5820 5821 5821 5822 5822 5822 5822 5822 5822 5822 5821 5820 5819 5819 5818 5818 5816 5816 5815 5816 5815 5815 5815 5815 5816 5816
5783 5785 5787 5788 5791 5795 5798 5800 5801 5802 5803 5805 5807 5809 5810 5812 5813 5815 5815 5815 5815 5816 5816 5816 5815 5815 5814 5814 5813 5813 5814 5813 5812 5812 5811 5811 5810 5810 5810 5810 5810 5810 5809
5774 5777 5780 5781 5784 5787 5791 5792 5793 5795 5796 5798 5799 5801 5803 5804 5806 5807 5807 5808 5808 5809 5809 5809 5809 5809 5808 5807 5808 5807 5807 5807 5806 5805 5804 5804 5803 5803 5803 5803 5802 5802 5801
5768 5769 5771 5773 5776 5779 5782 5785 5786 5787 5789 5790 5791 5793 5794 5797 5798 5799 5799 5799 5800 5800 5801 5801 5802 5802 5802 5801 5803 5802 5801 5800 5799 5798 5797 5797 5796 5796 5795 5794 5794 5793 5792
5761 5763 5763 5764 5766 5770 5773 5775 5778 5780 5781 5781 5784 5785 5787 5790 5790 5790 5791 5791 5792 5792 5792 5792 5792 5793 5793 5794 5794 5794 5794 5793 5791 5790 5790 5789 5788 5788 5788 5786 5785 5785 5783
5749 5752 5754 5755 5757 5760 5762 5767 5769 5771 5773 5773 5775 5776 5777 5780 5781 5782 5782 5783 5783 5782 5782 5783 5783 5784 5785 5786 5786 5786 5786 5785 5784 5783 5782 5782 5781 5780 5779 5778 5776 5775 5775
5739 5741 5744 5746 5747 5749 5752 5754 5757 5761 5764 5763 5766 5766 5767 5769 5771 5773 5773 5773 5772 5772 5772 5773 5774 5775 5776 5776 5776 5776 5777 5777 5776 5776 5775 5773 5773 5772 5769 5768 5767 5765 5763
5728 5731 5733 5736 5739 5741 5743 5745 5747 5749 5752 5754 5754 5756 5758 5761 5761 5761 5762 5762 5761 5762 5764 5763 5765 5767 5767 5766 5767 5767 5766 5766 5765 5765 5765 5765 5763 5762 5761 5758 5756 5755 5753
5717 5720 5723 5726 5728 5731 5732 5733 5734 5735 5739 5741 5744 5746 5747 5748 5748 5749 5749 5750 5752 5752 5752 5754 5755 5756 5756 5756 5757 5757 5756 5755 5754 5753 5753 5753 5750 5748 5748 5748 5745 5744 5741
5705 5707 5709 5711 5713 5716 5717 5720 5722 5723 5725 5728 5730 5731 5734 5734 5735 5737 5738 5739 5739 5740 5741 5743 5743 5745 5745 5745 5746 5745 5745 5743 5743 5743 5741 5738 5737 5737 5735 5735 5734 5731 5730
5690 5694 5697 5699 5699 5701 5703 5705 5706 5710 5711 5713 5715 5715 5718 5719 5721 5723 5725 5725 5726 5727 5729 5731 5732 5734 5734 5732 5733 5733 5732 5732 5730 5730 5727 5725 5723 5723 5722 5721 5721 5720 5718
5677 5681 5685 5687 5688 5689 5688 5689 5690 5691 5692 5693 5695 5696 5698 5701 5704 5707 5710 5710 5713 5714 5715 5718 5720 5720 5719 5720 5720 5719 5719 5719 5718 5716 5713 5712 5709 5707 5708 5707 5706 5706 5704
5664 5668 5672 5673 5672 5674 5676 5677 5678 5678 5678 5676 5679 5682 5682 5680 5686 5689 5693 5697 5698 5702 5704 5706 5707 5707 5707 5708 5706 5705 5707 5708 5705 5705 5701 5700 5697 5695 5693 5694 5694 5692 5690
5647 5653 5655 5656 5658 5660 5658 5658 5659 5663 5665 5670 5671 5666 5667 5672 5672 5675 5678 5684 5686 5689 5692 5693 5693 5693 5695 5695 5694 5694 5695 5695 5693 5692 5689 5689 5686 5683 5682 5682 5680 5679 5677
5627 5632 5636 5638 5640 5644 5643 5642 5643 5645 5650 5654 5653 5643 5652 5658 5660 5669 5666 5669 5670 5675 5677 5680 5680 5680 5681 5681 5681 5682 5683 5681 5680 5679 5679 5677 5674 5672 5670 5668 5668 5666 5666
5608 5613 5617 5621 5623 5626 5628 5628 5630 5630 5636 5638 5642 5645 5645 5643 5644 5648 5649 5657 5659 5662 5666 5668 5667 5666 5668 5668 5667 5669 5668 5667 5667 5666 5665 5664 5662 5660 5658 5655 5655 5655 5655
5592 5596 5601 5605 5606 5609 5613 5591 5612 5619 5621 5625 5627 5630 5633 5632 5633 5639 5640 5642 5646 5650 5650 5652 5653 5653 5656 5656 5655 5654 5654 5654 5654 5653 5650 5650 5648 5647 5644 5646 5645 5644 5644
5577 5579 5581 5585 5589 5591 5594 5598 5598 5602 5604 5608 5611 5615 5620 5618 5623 5623 5629 5631 5634 5635 5637 5638 5639 5643 5642 5642 5640 5641 5641 5642 5640 5638 5638 5637 5635 5633 5633 5633 5631 5631 5631
5561 5562 5564 5567 5571 5574 5571 5579 5584 5583 5585 5591 5591 5596 5604 5602 5609 5613 5616 5618 5621 5621 5621 5623 5624 5626 5626 5626 5625 5626 5626 5625 5624 5625 5624 5623 5620 5620 5620 5622 5620 5620 5621
5543 5546 5546 5549 5554 5554 5558 5560 5564 5567 5568 5571 5572 5578 5585 5589 5593 5597 5601 5604 5606 5607 5607 5608 5609 5610 5611 5610 5611 5609 5608 5608 5610 5610 5609 5609 5608 5609 5607 5607 5606 5608 5608
5524 5529 5529 5531 5534 5535 5540 5542 5547 5549 5552 5555 5561 5564 5568 5574 5577 5581 5586 5590 5592 5592 5591 5594 5593 5593 5596 5596 5596 5596 5596 5595 5594 5596 5593 5593 5594 5595 5595 5594 5595 5595 5595
5509 5514 5516 5517 5520 5525 5528 5534 5533 5535 5539 5543 5549 5552 5558 5564 5566 5568 5572 5574 5578 5578 5579 5579 5580 5580 5581 5581 5580 5580 5580 5582 5581 5581 5581 5581 5580 5581 5581 5581 5581 5580 5580
Wind_Speed
23 24 25 25 25 24 21 21 21 22 22 22 20 19 19 20 21 22 22 23 23 23 23 23 24 23 24 25 26 28 28 28 27 25 24 20 21 22 21 22 22 23 23
27 26 27 26 27 26 23 23 23 23 23 22 21 22 22 22 23 23 24 25 25 26 26 26 25 24 26 27 25 27 26 22 21 22 22 21 22 24 24 25 26 25 27
29 28 28 27 28 28 26 24 24 23 24 24 24 24 25 25 24 24 24 25 25 26 26 27 26 26 26 27 25 26 28 27 23 20 20 23 24 26 26 27 28 28 29
31 30 29 28 28 28 27 25 25 26 26 26 26 26 27 26 24 25 25 26 26 26 27 27 27 27 28 27 25 24 25 22 20 21 20 21 25 25 26 27 29 31 32
32 34 32 31 30 28 27 26 26 27 30 30 29 29 29 27 26 26 26 27 28 28 29 29 28 29 29 29 27 27 27 23 22 21 22 23 25 24 26 27 29 34 34
35 35 36 34 32 30 28 28 28 29 30 31 30 30 29 28 28 28 28 29 30 30 31 32 31 30 32 31 30 30 27 25 26 27 26 25 24 24 25 27 28 30 31
37 37 37 37 36 33 31 31 31 31 33 32 33 32 31 30 31 31 31 31 32 32 33 34 34 33 33 33 30 29 29 27 28 30 28 27 24 26 26 28 29 30 30
36 38 39 39 38 36 34 35 35 34 34 34 36 35 35 34 33 34 34 34 34 34 35 36 36 36 35 35 34 35 33 33 33 33 34 32 33 33 34 32 31 32 34
35 37 38 40 39 39 39 39 39 38 38 39 38 39 38 37 36 37 36 36 35 36 37 39 39 40 39 37 37 37 38 38 38 37 36 37 37 34 34 37 36 37 39
39 40 39 40 41 41 42 41 41 41 41 42 41 40 40 39 40 40 39 38 38 39 40 41 41 41 41 39 39 40 41 42 41 41 39 39 40 40 37 37 36 38 39
44 43 43 43 44 44 44 46 45 45 45 47 45 45 44 43 41 42 42 42 43 43 44 44 44 43 41 42 40 40 45 45 45 43 43 43 43 41 40 39 36 37 39
47 47 47 46 47 47 48 49 49 49 49 50 51 49 48 47 46 45 46 46 48 47 46 46 45 44 43 43 43 42 43 47 49 48 47 46 47 47 46 43 40 43 43
52 51 50 49 48 49 51 52 53 54 53 54 53 52 52 52 51 50 50 50 49 49 48 48 46 46 45 43 41 31 37 40 36 40 48 50 55 53 51 46 43 41 41
56 56 56 55 54 55 57 58 59 58 59 59 59 58 57 57 57 54 53 51 51 51 50 50 48 47 47 46 45 39 39 37 33 47 48 48 48 56 47 49 48 45 47
59 57 58 56 55 58 57 55 61 64 64 62 63 63 64 63 60 59 56 55 54 53 52 51 51 49 49 53 49 37 37 40 44 45 48 54 49 56 58 59 55 51 51
60 58 54 58 60 59 63 61 64 62 64 63 60 64 66 66 65 62 60 59 54 55 54 52 51 51 51 53 52 57 44 43 50 49 48 56 57 51 56 57 55 55 52
66 63 58 62 59 59 68 65 64 63 63 63 65 60 63 62 69 64 63 60 56 56 54 51 51 53 53 49 46 44 43 46 45 43 45 48 49 46 47 49 49 51 48
69 65 66 64 66 69 66 79 70 77 66 56 73 72 65 49 53 62 64 59 56 55 50 50 49 48 59 44 42 41 40 39 41 45 46 41 44 45 45 48 47 46 47
66 68 69 68 69 72 75 81 77 68 64 66 65 56 47 46 40 53 47 53 54 47 54 47 57 43 41 46 46 45 41 42 45 46 47 45 44 47 48 48 45 47 49
60 63 70 71 72 76 80 91 79 71 68 70 71 69 72 43 50 48 52 44 46 51 48 57 50 47 47 47 42 42 42 44 48 52 49 50 49 53 54 52 50 50 49
53 54 60 68 75 74 75 58 69 73 70 73 72 75 71 50 47 50 49 53 44 55 55 51 51 48 46 44 47 48 47 47 50 49 49 46 52 55 55 56 52 50 47
58 57 59 66 71 76 78 76 77 75 75 77 79 78 69 45 51 55 54 53 46 52 53 52 46 44 49 47 52 51 51 52 49 49 47 49 52 54 58 58 49 48 47
63 64 61 62 67 73 62 77 78 72 72 85 87 81 60 51 49 53 55 50 50 51 54 52 54 48 49 52 53 53 50 49 50 50 47 46 48 52 51 50 46 47 46
57 67 63 62 65 72 76 67 71 76 57 48 58 64 53 51 48 49 49 49 50 49 50 52 50 53 57 57 54 51 50 50 51 50 49 47 46 48 49 49 47 48 48
60 56 55 60 67 64 60 57 73 47 50 57 60 65 56 47 46 47 55 55 54 55 49 56 56 58 60 59 56 50 48 50 50 50 49 47 48 52 53 52 50 51 51
45 41 46 43 63 60 57 56 46 51 52 58 56 48 44 42 47 46 50 49 56 59 58 58 58 59 59 57 52 50 52 51 52 48 47 47 49 52 53 54 54 54 54
Wind_Direction
244 244 242 238 236 235 230 230 232 235 242 252 258 257 250 247 249 252 253 257 258 262 266 269 271 276 282 284 288 291 292 295 296 293 277 267 263 259 256 252 252 256 254
242 242 243 241 237 238 235 234 232 237 243 249 253 256 255 253 252 255 258 261 264 266 267 271 273 279 284 286 291 294 292 298 297 288 276 262 260 261 261 258 258 259 255
239 240 243 241 240 240 239 238 241 241 245 248 251 254 256 256 258 259 262 263 265 267 269 270 275 278 282 287 289 289 293 292 289 278 267 259 262 262 261 263 262 264 260
240 238 240 242 237 238 239 238 239 244 248 250 250 252 254 259 261 263 264 264 262 262 266 270 274 279 282 285 284 285 291 288 275 274 269 264 261 261 264 265 267 268 268
242 241 239 242 243 240 241 241 244 246 250 252 253 254 257 259 260 260 261 263 264 262 264 267 270 275 278 279 277 279 288 282 276 274 280 271 266 263 266 266 269 268 269
243 244 245 245 247 247 247 247 244 246 250 254 257 257 259 260 260 260 260 262 262 263 265 267 268 272 275 276 273 277 284 285 273 274 270 278 277 269 267 268 271 270 274
239 243 246 249 248 247 246 247 250 251 252 253 255 258 259 258 259 260 262 263 264 264 266 269 270 271 275 276 273 273 280 283 282 275 274 271 274 280 275 269 272 270 275
237 240 245 249 252 254 251 248 249 250 253 255 258 260 259 259 260 260 260 261 263 266 268 271 272 273 275 278 276 277 276 278 280 280 278 273 280 281 280 276 274 269 271
248 246 246 250 252 253 254 253 252 253 252 254 257 262 264 264 259 259 262 263 264 266 268 269 272 275 280 281 279 278 278 278 278 277 276 276 280 285 281 278 276 278 272
242 245 246 249 252 253 254 257 256 257 257 259 259 260 261 263 264 263 263 263 264 265 266 269 273 277 282 282 284 280 279 278 279 276 276 278 281 282 277 274 271 271 275
240 241 243 245 248 252 255 256 254 256 258 258 261 261 262 260 261 263 262 263 262 263 265 269 274 278 282 283 283 283 280 279 278 278 277 276 277 277 273 269 270 275 277
243 244 245 246 249 252 255 257 260 258 257 258 258 259 261 265 262 260 261 260 263 266 270 271 274 278 280 283 286 289 290 281 274 276 276 279 280 277 273 270 270 274 278
248 246 247 246 249 253 254 255 258 260 261 261 262 263 263 261 262 260 260 261 264 266 269 271 274 276 279 281 285 291 293 289 287 286 278 286 275 271 270 267 270 274 277
251 250 251 251 250 251 252 254 255 257 260 262 263 263 261 259 260 261 261 262 264 266 268 269 272 275 278 276 285 280 297 289 289 287 285 290 296 276 267 270 272 270 279
248 250 248 248 249 255 256 256 260 262 262 259 261 262 261 259 258 258 259 261 263 265 268 270 272 274 276 277 282 278 290 281 283 285 292 296 286 282 269 275 270 273 274
245 246 244 245 251 253 255 257 251 252 257 261 260 256 254 255 255 255 254 256 260 263 266 268 272 274 274 278 285 282 281 289 288 286 287 284 290 280 276 274 270 273 277
249 248 247 247 250 246 248 253 255 263 253 256 256 263 255 253 253 251 250 255 257 261 265 269 273 274 281 276 291 275 278 287 288 286 292 290 293 293 279 273 277 277 273
253 253 248 245 245 245 249 259 251 258 255 260 272 246 253 251 260 258 255 254 257 259 266 271 269 269 272 273 274 273 280 284 285 285 290 290 294 291 285 274 276 273 271
253 252 247 246 250 245 247 255 259 249 259 266 266 244 256 263 253 246 252 254 266 256 265 264 264 270 264 270 272 276 280 279 281 288 294 287 289 286 286 279 276 275 270
252 252 250 247 251 248 247 253 255 259 261 263 263 267 271 252 255 235 235 242 255 248 258 259 264 265 264 269 271 278 275 274 281 285 287 283 285 285 279 276 272 273 270
252 256 257 253 249 250 250 259 259 261 261 259 264 265 266 242 244 253 242 252 257 255 257 261 261 262 265 266 276 277 275 275 283 281 281 283 282 282 280 279 280 276 266
258 261 256 257 253 252 253 253 256 258 262 259 256 263 262 241 246 240 245 254 259 257 258 261 262 262 265 266 272 276 278 279 283 282 279 280 280 279 280 281 280 272 259
258 262 257 256 256 253 249 254 258 260 256 256 252 255 248 239 248 241 250 251 255 255 257 259 257 265 268 273 271 275 279 279 281 276 274 277 277 280 283 279 272 265 258
253 254 254 256 255 255 252 251 259 255 250 253 245 247 237 243 240 240 247 252 253 256 260 266 266 270 271 272 274 272 273 275 281 273 272 273 273 274 275 272 269 266 259
248 254 258 256 252 260 256 269 251 252 254 252 242 241 239 235 244 246 246 254 255 254 257 263 265 268 271 271 272 271 269 271 269 269 269 271 273 273 273 270 270 269 264
241 256 258 249 254 253 259 253 244 253 246 232 233 221 236 240 241 247 245 245 249 257 260 265 269 271 271 269 267 266 266 266 266 267 270 268 270 271 271 268 270 268 264